Voltar ao catálogo

ATLAS CENTAUR R/B

AtivoGTO
NORAD 10722·ROCKET BODY·🇺🇸 United States

Lançado Jan 7, 1978 de Cape Canaveral Space Force Station

Loading…

TLE

EnvelhecendoSource: Space-Track

Época: Sep 14, 2026, 14:18 UTC

1 10722U 78002B   26257.59616110 -.00000124  00000-0  11495-2 0  9990
2 10722  21.6640 309.8818 7173986 227.8488  38.1525  2.21875554286593

Acompanhe ATLAS CENTAUR R/B em tempo real com AllMySat

Download on the App Store